EWG2480 EDDS-EGPH

Flight info

Callsign EWG2480
Flight time 1h 52m
Altitude 35000
Route OKIBA4H/07 OKIBA N851 RIMKI Z99 LOHRE DCT MASEK/N0442F360 DCT MAPOX DCT MIMVA L602 NALAX L46 ESHIN N110 ERKIT DCT AGPED
Aircraft A320/M-SDE3FGHIRWY/LB1

Departure

Time 2026-04-22 18:27
Airport Stuttgart Airport (EDDS)

Arrival

Time 2026-04-22 20:20
Airport Edinburgh Airport (EGPH)
Time Latitude Longitude Altitude Speed Heading
2026-04-22 18:03 48.68869 9.19286 1275 ft 0 kts 343°
2026-04-22 18:19 48.68867 9.19287 1301 ft 3 kts 343°
2026-04-22 18:19 48.68841 9.19297 1301 ft 4 kts 353°
2026-04-22 18:20 48.68815 9.19297 1301 ft 4 kts 18°
2026-04-22 18:20 48.68797 9.19279 1301 ft 1 kts 73°
2026-04-22 18:20 48.68796 9.19271 1301 ft 0 kts 73°
2026-04-22 18:23 48.68800 9.19293 1301 ft 6 kts 73°
2026-04-22 18:23 48.68807 9.19331 1301 ft 0 kts 74°
2026-04-22 18:24 48.68782 9.19369 1301 ft 4 kts 161°
2026-04-22 18:24 48.68755 9.19382 1301 ft 5 kts 164°
2026-04-22 18:24 48.68688 9.19495 1301 ft 9 kts 77°
2026-04-22 18:25 48.68705 9.19594 1301 ft 10 kts 74°
2026-04-22 18:25 48.68727 9.19707 1301 ft 12 kts 72°
2026-04-22 18:25 48.68751 9.19827 1301 ft 13 kts 73°
2026-04-22 18:26 48.68680 9.19983 1299 ft 9 kts 164°
2026-04-22 18:26 48.68630 9.20007 1300 ft 6 kts 158°
2026-04-22 18:26 48.68590 9.20089 1299 ft 17 kts 95°
2026-04-22 18:26 48.68643 9.20396 1295 ft 58 kts 73°
2026-04-22 18:27 48.68820 9.21325 1268 ft 124 kts 73°
2026-04-22 18:27 48.69103 9.22815 1283 ft 167 kts 76°
2026-04-22 18:27 48.69420 9.24520 1918 ft 169 kts 72°
2026-04-22 18:27 48.69725 9.26239 2652 ft 170 kts 75°
2026-04-22 18:28 48.70057 9.28051 3014 ft 189 kts 74°
2026-04-22 18:28 48.70440 9.30093 3310 ft 214 kts 74°
2026-04-22 18:28 48.70873 9.32380 3716 ft 237 kts 74°
2026-04-22 18:28 48.71340 9.34837 4438 ft 246 kts 74°
2026-04-22 18:29 48.71823 9.37361 4888 ft 251 kts 74°
2026-04-22 18:29 48.72311 9.39905 4990 ft 250 kts 74°
2026-04-22 18:29 48.72794 9.42435 5006 ft 250 kts 74°
2026-04-22 18:29 48.73276 9.44960 5012 ft 250 kts 74°
2026-04-22 18:30 48.73755 9.47460 5006 ft 250 kts 72°
2026-04-22 18:30 48.75857 9.51556 5014 ft 255 kts 32°
2026-04-22 18:30 48.77530 9.52484 5013 ft 260 kts 11°
2026-04-22 18:31 48.79354 9.52482 5013 ft 263 kts 359°
2026-04-22 18:31 48.81181 9.52264 5031 ft 264 kts 359°
2026-04-22 18:31 48.83052 9.52048 5757 ft 268 kts 359°
2026-04-22 18:31 48.84901 9.51838 6656 ft 271 kts 359°
2026-04-22 18:32 48.86798 9.51626 7452 ft 276 kts 358°
2026-04-22 18:32 48.88723 9.51411 8293 ft 278 kts 358°
2026-04-22 18:32 48.90667 9.51194 9179 ft 280 kts 358°
2026-04-22 18:32 48.92620 9.50977 10051 ft 282 kts 359°
2026-04-22 18:33 48.94609 9.50714 10608 ft 296 kts 354°
2026-04-22 18:33 48.96661 9.49873 10819 ft 322 kts 340°
2026-04-22 18:33 48.98731 9.48377 11316 ft 334 kts 336°
2026-04-22 18:33 49.00839 9.46818 12009 ft 338 kts 337°
2026-04-22 18:34 49.02994 9.45234 12767 ft 341 kts 337°
2026-04-22 18:34 49.05116 9.43676 13480 ft 344 kts 337°
2026-04-22 18:34 49.07286 9.42086 14208 ft 347 kts 337°
2026-04-22 18:34 49.09478 9.40480 14846 ft 351 kts 337°
2026-04-22 18:35 49.11689 9.38857 15481 ft 354 kts 337°
2026-04-22 18:35 49.13918 9.37214 16109 ft 357 kts 337°
2026-04-22 18:35 49.16160 9.35555 16730 ft 360 kts 337°
2026-04-22 18:35 49.18428 9.33874 17329 ft 363 kts 337°
2026-04-22 18:36 49.20762 9.32360 17936 ft 364 kts 345°
2026-04-22 18:36 49.23228 9.31516 18534 ft 364 kts 356°
2026-04-22 18:36 49.25769 9.31275 19068 ft 365 kts
2026-04-22 18:36 49.28283 9.31095 19606 ft 368 kts 360°
2026-04-22 18:37 49.30855 9.30902 20154 ft 370 kts 360°
2026-04-22 18:37 49.33436 9.30704 20699 ft 373 kts 359°
2026-04-22 18:37 49.35185 9.30600 21069 ft 374 kts
2026-04-22 18:37 49.38634 9.31004 21781 ft 376 kts
2026-04-22 18:38 49.41254 9.31387 22320 ft 378 kts
2026-04-22 18:38 49.43893 9.31776 22849 ft 381 kts
2026-04-22 18:38 49.46514 9.32167 23361 ft 383 kts
2026-04-22 18:39 49.51878 9.32602 24263 ft 392 kts 355°
2026-04-22 18:39 49.54580 9.31851 24670 ft 395 kts 352°
2026-04-22 18:39 49.57295 9.31037 25071 ft 398 kts 352°
2026-04-22 18:39 49.60019 9.30201 25450 ft 400 kts 351°
2026-04-22 18:40 49.62751 9.29348 25830 ft 402 kts 351°
2026-04-22 18:40 49.65507 9.28487 26189 ft 404 kts 351°
2026-04-22 18:40 49.68276 9.27622 26550 ft 407 kts 351°
2026-04-22 18:40 49.71059 9.26757 26905 ft 409 kts 352°
2026-04-22 18:41 49.73821 9.25900 27256 ft 411 kts 352°
2026-04-22 18:41 49.76635 9.25026 27596 ft 413 kts 351°
2026-04-22 18:41 49.79395 9.23741 27940 ft 420 kts 338°
2026-04-22 18:41 49.81867 9.21264 28258 ft 429 kts 321°
2026-04-22 18:42 49.83998 9.17981 28585 ft 433 kts 317°
2026-04-22 18:42 49.86102 9.14613 28908 ft 435 kts 317°
2026-04-22 18:42 49.88204 9.11204 29225 ft 438 kts 316°
2026-04-22 18:42 49.90309 9.07769 29548 ft 440 kts 316°
2026-04-22 18:43 49.92429 9.04307 29845 ft 441 kts 316°
2026-04-22 18:43 49.94558 9.00839 30143 ft 443 kts 317°
2026-04-22 18:43 49.96691 8.97380 30408 ft 445 kts 317°
2026-04-22 18:43 49.98815 8.93948 30645 ft 446 kts 317°
2026-04-22 18:44 50.00979 8.90450 30865 ft 448 kts 317°
2026-04-22 18:44 50.03143 8.86948 31086 ft 449 kts 317°
2026-04-22 18:44 50.05305 8.83436 31319 ft 450 kts 317°
2026-04-22 18:44 50.07472 8.79903 31597 ft 449 kts 317°
2026-04-22 18:45 50.09620 8.76386 31911 ft 448 kts 316°
2026-04-22 18:45 50.11750 8.72895 32218 ft 447 kts 317°
2026-04-22 18:45 50.13889 8.69389 32531 ft 446 kts 317°
2026-04-22 18:45 50.16028 8.65881 32839 ft 445 kts 317°
2026-04-22 18:46 50.18165 8.62377 33141 ft 444 kts 317°
2026-04-22 18:46 50.20291 8.58886 33442 ft 443 kts 317°
2026-04-22 18:46 50.22384 8.55441 33741 ft 442 kts 317°
2026-04-22 18:46 50.24499 8.51956 34061 ft 441 kts 317°
2026-04-22 18:47 50.26610 8.48471 34366 ft 440 kts 317°
2026-04-22 18:47 50.28712 8.44994 34627 ft 440 kts 316°
2026-04-22 18:47 50.30814 8.41512 34869 ft 439 kts 316°
2026-04-22 18:47 50.32912 8.38031 35097 ft 439 kts 316°
2026-04-22 18:48 50.35013 8.34540 35276 ft 440 kts 316°
2026-04-22 18:48 50.37108 8.31057 35336 ft 436 kts 316°
2026-04-22 18:48 50.41251 8.24163 35338 ft 433 kts 316°
2026-04-22 18:49 50.45357 8.17311 35340 ft 433 kts 316°
2026-04-22 18:49 50.49494 8.10400 35335 ft 433 kts 316°
2026-04-22 18:50 50.53628 8.03456 35335 ft 433 kts 316°
2026-04-22 18:50 50.57712 7.96572 35329 ft 433 kts 316°
2026-04-22 18:51 50.61836 7.89600 35473 ft 435 kts 316°
2026-04-22 18:51 50.63904 7.86102 35678 ft 436 kts 316°
2026-04-22 18:51 50.65973 7.82598 35880 ft 436 kts 316°
2026-04-22 18:52 50.68039 7.79094 36079 ft 436 kts 316°
2026-04-22 18:52 50.70106 7.75579 36270 ft 436 kts 316°
2026-04-22 18:52 50.74203 7.68583 36337 ft 436 kts 316°
2026-04-22 18:53 50.75577 7.66235 36340 ft 436 kts 316°
2026-04-22 18:53 50.79159 7.60112 36351 ft 436 kts 316°
2026-04-22 18:54 50.83251 7.53095 36337 ft 437 kts 316°
2026-04-22 18:54 50.87337 7.46084 36335 ft 437 kts 315°
2026-04-22 18:55 50.91455 7.39000 36328 ft 437 kts 315°
2026-04-22 18:55 50.94869 7.33100 36327 ft 437 kts 315°
2026-04-22 18:56 50.98983 7.25969 36329 ft 437 kts 315°
2026-04-22 18:56 51.03071 7.18874 36327 ft 437 kts 315°
2026-04-22 18:57 51.07184 7.11719 36333 ft 437 kts 315°
2026-04-22 18:57 51.11283 7.04564 36343 ft 437 kts 315°
2026-04-22 18:58 51.15353 6.97429 36343 ft 437 kts 315°
2026-04-22 18:58 51.19443 6.90237 36344 ft 437 kts 315°
2026-04-22 18:59 51.23526 6.83046 36346 ft 437 kts 315°
2026-04-22 18:59 51.27618 6.75830 36349 ft 437 kts 315°
2026-04-22 19:00 51.31663 6.68662 36347 ft 437 kts 315°
2026-04-22 19:00 51.35735 6.61419 36351 ft 437 kts 315°
2026-04-22 19:01 51.39801 6.54174 36348 ft 437 kts 315°
2026-04-22 19:01 51.43874 6.46908 36347 ft 437 kts 315°
2026-04-22 19:02 51.47930 6.39642 36350 ft 437 kts 314°
2026-04-22 19:02 51.51955 6.32383 36356 ft 437 kts 314°
2026-04-22 19:03 51.56003 6.25087 36350 ft 437 kts 314°
2026-04-22 19:03 51.60049 6.17778 36354 ft 437 kts 314°
2026-04-22 19:04 51.64067 6.10502 36349 ft 437 kts 314°
2026-04-22 19:04 51.68105 6.03172 36349 ft 437 kts 314°
2026-04-22 19:05 51.72131 5.95820 36350 ft 437 kts 314°
2026-04-22 19:05 51.76157 5.88452 36350 ft 437 kts 314°
2026-04-22 19:06 51.80182 5.81074 36352 ft 437 kts 314°
2026-04-22 19:07 51.86179 5.70027 36356 ft 437 kts 314°
2026-04-22 19:07 51.90190 5.62626 36359 ft 436 kts 314°
2026-04-22 19:08 51.94175 5.55257 36360 ft 436 kts 314°
2026-04-22 19:08 51.98178 5.47825 36364 ft 436 kts 314°
2026-04-22 19:09 52.02164 5.40377 36373 ft 436 kts 313°
2026-04-22 19:09 52.06150 5.32914 36375 ft 436 kts 313°
2026-04-22 19:10 52.10111 5.25490 36373 ft 436 kts 313°
2026-04-22 19:10 52.14088 5.18013 36374 ft 436 kts 313°
2026-04-22 19:11 52.18046 5.10556 36371 ft 436 kts 313°
2026-04-22 19:11 52.22014 5.03059 36373 ft 436 kts 313°
2026-04-22 19:12 52.25978 4.95537 36370 ft 436 kts 313°
2026-04-22 19:12 52.29916 4.88034 36370 ft 436 kts 313°
2026-04-22 19:13 52.33860 4.80490 36369 ft 436 kts 313°
2026-04-22 19:13 52.37781 4.72977 36366 ft 436 kts 313°
2026-04-22 19:14 52.41717 4.65429 36374 ft 436 kts 313°
2026-04-22 19:14 52.45676 4.57797 36372 ft 436 kts 313°
2026-04-22 19:15 52.48943 4.51495 36378 ft 436 kts 313°
2026-04-22 19:15 52.53512 4.42663 36395 ft 436 kts 313°
2026-04-22 19:16 52.57415 4.35076 36406 ft 436 kts 313°
2026-04-22 19:16 52.61323 4.27450 36403 ft 436 kts 313°
2026-04-22 19:17 52.65234 4.19798 36411 ft 436 kts 313°
2026-04-22 19:17 52.69149 4.12131 36416 ft 436 kts 313°
2026-04-22 19:18 52.73052 4.04442 36417 ft 436 kts 312°
2026-04-22 19:18 52.76925 3.96783 36420 ft 436 kts 312°
2026-04-22 19:19 52.80785 3.89132 36421 ft 435 kts 312°
2026-04-22 19:19 52.84673 3.81420 36426 ft 435 kts 312°
2026-04-22 19:20 52.88550 3.73717 36427 ft 435 kts 312°
2026-04-22 19:20 52.92427 3.65981 36430 ft 435 kts 312°
2026-04-22 19:21 52.96258 3.58293 36434 ft 435 kts 312°
2026-04-22 19:21 53.00115 3.50526 36432 ft 435 kts 312°
2026-04-22 19:22 53.03964 3.42769 36431 ft 435 kts 312°
2026-04-22 19:22 53.07800 3.34973 36431 ft 435 kts 309°
2026-04-22 19:23 53.10578 3.26074 36429 ft 441 kts 289°
2026-04-22 19:23 53.11976 3.16099 36429 ft 443 kts 285°
2026-04-22 19:24 53.13312 3.06048 36434 ft 443 kts 285°
2026-04-22 19:24 53.14644 2.96020 36438 ft 443 kts 285°
2026-04-22 19:25 53.15739 2.87675 36445 ft 443 kts 284°
2026-04-22 19:25 53.17249 2.76024 36453 ft 442 kts 284°
2026-04-22 19:26 53.18536 2.65987 36448 ft 442 kts 284°
2026-04-22 19:26 53.19814 2.55950 36452 ft 442 kts 284°
2026-04-22 19:27 53.21089 2.45924 36456 ft 441 kts 284°
2026-04-22 19:27 53.22366 2.35879 36462 ft 441 kts 284°
2026-04-22 19:28 53.23605 2.25920 36462 ft 440 kts 284°
2026-04-22 19:28 53.24842 2.15881 36464 ft 440 kts 284°
2026-04-22 19:29 53.26061 2.05913 36462 ft 440 kts 284°
2026-04-22 19:29 53.27290 1.95895 36465 ft 439 kts 284°
2026-04-22 19:30 53.28302 1.87558 36468 ft 439 kts 284°
2026-04-22 19:30 53.29709 1.75923 36467 ft 438 kts 284°
2026-04-22 19:31 53.30908 1.65926 36483 ft 437 kts 284°
2026-04-22 19:31 53.32080 1.56014 36477 ft 437 kts 283°
2026-04-22 19:32 53.33302 1.46042 36473 ft 436 kts 285°
2026-04-22 19:32 53.34751 1.36194 36482 ft 434 kts 287°
2026-04-22 19:33 53.36236 1.26463 36473 ft 434 kts 287°
2026-04-22 19:33 53.37677 1.16633 36475 ft 433 kts 286°
2026-04-22 19:34 53.39077 1.06802 36475 ft 433 kts 286°
2026-04-22 19:34 53.40456 0.96979 36477 ft 432 kts 285°
2026-04-22 19:35 53.41825 0.87216 36474 ft 432 kts 285°
2026-04-22 19:35 53.42967 0.79066 36478 ft 431 kts 285°
2026-04-22 19:36 53.44558 0.67666 36480 ft 431 kts 285°
2026-04-22 19:36 53.45687 0.59515 36474 ft 430 kts 285°
2026-04-22 19:37 53.47245 0.48130 36480 ft 429 kts 285°
2026-04-22 19:37 53.48352 0.39983 36478 ft 429 kts 285°
2026-04-22 19:38 53.49684 0.30193 36475 ft 429 kts 285°
2026-04-22 19:38 53.51006 0.20395 36475 ft 429 kts 285°
2026-04-22 19:39 53.52310 0.10662 36482 ft 429 kts 284°
2026-04-22 19:39 53.53618 0.00857 36486 ft 429 kts 284°
2026-04-22 19:40 53.54914 -0.08955 36491 ft 429 kts 284°
2026-04-22 19:40 53.56195 -0.18771 36496 ft 429 kts 284°
2026-04-22 19:41 53.58291 -0.27987 36493 ft 424 kts 303°
2026-04-22 19:41 53.62160 -0.35390 36487 ft 420 kts 323°
2026-04-22 19:42 53.66973 -0.40990 36482 ft 421 kts 326°
2026-04-22 19:42 53.71781 -0.46547 36476 ft 421 kts 326°
2026-04-22 19:43 53.79038 -0.54958 36475 ft 421 kts 326°
2026-04-22 19:43 53.83873 -0.60580 36477 ft 422 kts 326°
2026-04-22 19:44 53.88720 -0.66222 36478 ft 422 kts 326°
2026-04-22 19:44 53.93554 -0.71882 36480 ft 422 kts 325°
2026-04-22 19:45 53.98355 -0.77527 36482 ft 422 kts 325°
2026-04-22 19:45 54.03191 -0.83219 36488 ft 422 kts 326°
2026-04-22 19:46 54.08193 -0.88484 36485 ft 423 kts 330°
2026-04-22 19:46 54.13330 -0.93422 36484 ft 423 kts 330°
2026-04-22 19:47 54.18420 -0.98358 36485 ft 423 kts 329°
2026-04-22 19:47 54.23520 -1.03452 36482 ft 423 kts 329°
2026-04-22 19:48 54.28588 -1.08581 36480 ft 423 kts 329°
2026-04-22 19:48 54.33637 -1.13691 36482 ft 424 kts 329°
2026-04-22 19:49 54.38726 -1.18847 36500 ft 424 kts 329°
2026-04-22 19:49 54.43820 -1.24008 36505 ft 425 kts 329°
2026-04-22 19:50 54.48885 -1.29159 36508 ft 425 kts 329°
2026-04-22 19:50 54.53977 -1.34356 36506 ft 425 kts 329°
2026-04-22 19:51 54.59071 -1.39578 36509 ft 425 kts 328°
2026-04-22 19:51 54.64163 -1.44811 36509 ft 426 kts 328°
2026-04-22 19:52 54.69263 -1.50065 36134 ft 428 kts 328°
2026-04-22 19:52 54.71805 -1.52693 34624 ft 436 kts 328°
2026-04-22 19:52 54.74458 -1.55441 33733 ft 436 kts 328°
2026-04-22 19:53 54.76987 -1.58059 33602 ft 421 kts 328°
2026-04-22 19:53 54.79475 -1.60640 33149 ft 414 kts 327°
2026-04-22 19:53 54.81932 -1.63189 32626 ft 409 kts 327°
2026-04-22 19:53 54.84355 -1.65702 32120 ft 405 kts 327°
2026-04-22 19:54 54.86769 -1.68207 31617 ft 401 kts 327°
2026-04-22 19:54 54.89148 -1.70683 31123 ft 397 kts 327°
2026-04-22 19:54 54.91511 -1.73153 30627 ft 394 kts 327°
2026-04-22 19:54 54.93858 -1.75613 30093 ft 390 kts 327°
2026-04-22 19:55 54.96146 -1.78012 29628 ft 385 kts 327°
2026-04-22 19:55 54.98438 -1.80417 29161 ft 381 kts 327°
2026-04-22 19:55 55.00697 -1.82789 28712 ft 377 kts 327°
2026-04-22 19:55 55.02933 -1.85138 28263 ft 373 kts 327°
2026-04-22 19:56 55.05143 -1.87469 27835 ft 369 kts 327°
2026-04-22 19:56 55.07329 -1.89777 27421 ft 365 kts 327°
2026-04-22 19:56 55.09475 -1.92050 27012 ft 362 kts 326°
2026-04-22 19:56 55.11452 -1.94709 26607 ft 356 kts 315°
2026-04-22 19:57 55.13096 -1.97930 26131 ft 358 kts 305°
2026-04-22 19:57 55.14424 -2.01656 25617 ft 363 kts 299°
2026-04-22 19:57 55.15685 -2.05494 25096 ft 363 kts 299°
2026-04-22 19:57 55.16930 -2.09281 24595 ft 363 kts 299°
2026-04-22 19:58 55.18187 -2.13108 24056 ft 363 kts 299°
2026-04-22 19:58 55.19441 -2.16923 23658 ft 356 kts 299°
2026-04-22 19:58 55.20655 -2.20619 23153 ft 343 kts 299°
2026-04-22 19:58 55.21840 -2.24233 22500 ft 341 kts 299°
2026-04-22 19:59 55.23017 -2.27834 22017 ft 340 kts 298°
2026-04-22 20:00 55.30057 -2.49487 19248 ft 340 kts 297°
2026-04-22 20:00 55.31202 -2.53025 18969 ft 336 kts 297°
2026-04-22 20:01 55.32354 -2.56590 18607 ft 334 kts 297°
2026-04-22 20:01 55.33498 -2.60137 18207 ft 332 kts 297°
2026-04-22 20:01 55.34631 -2.63653 17826 ft 330 kts 297°
2026-04-22 20:01 55.35759 -2.67169 17451 ft 328 kts 297°
2026-04-22 20:02 55.36860 -2.70612 17090 ft 326 kts 297°
2026-04-22 20:02 55.37962 -2.74059 16550 ft 322 kts 297°
2026-04-22 20:02 55.39057 -2.77475 15923 ft 319 kts 297°
2026-04-22 20:02 55.40142 -2.80860 15322 ft 316 kts 297°
2026-04-22 20:03 55.41217 -2.84220 14725 ft 313 kts 297°
2026-04-22 20:03 55.42276 -2.87541 14131 ft 310 kts 297°
2026-04-22 20:03 55.43327 -2.90841 13545 ft 309 kts 297°
2026-04-22 20:03 55.44387 -2.94177 13087 ft 312 kts 297°
2026-04-22 20:04 55.45601 -2.97322 12877 ft 311 kts 311°
2026-04-22 20:04 55.47245 -2.99803 12708 ft 313 kts 326°
2026-04-22 20:04 55.49238 -3.01371 12524 ft 312 kts 343°
2026-04-22 20:04 55.51310 -3.02479 12026 ft 321 kts 343°
2026-04-22 20:05 55.53442 -3.03653 11734 ft 315 kts 342°
2026-04-22 20:05 55.55504 -3.04804 11201 ft 309 kts 342°
2026-04-22 20:05 55.57551 -3.05947 10534 ft 308 kts 342°
2026-04-22 20:05 55.59584 -3.07081 9846 ft 305 kts 343°
2026-04-22 20:06 55.61602 -3.08204 9149 ft 302 kts 343°
2026-04-22 20:06 55.63614 -3.09328 8680 ft 301 kts 343°
2026-04-22 20:06 55.65597 -3.10438 8055 ft 297 kts 343°
2026-04-22 20:06 55.67510 -3.11512 7696 ft 283 kts 343°
2026-04-22 20:07 55.69244 -3.12937 7322 ft 271 kts 320°
2026-04-22 20:07 55.70379 -3.15495 7190 ft 263 kts 291°
2026-04-22 20:07 55.70725 -3.18629 7057 ft 258 kts 263°
2026-04-22 20:07 55.70318 -3.21702 6932 ft 255 kts 249°
2026-04-22 20:08 55.69775 -3.24700 6809 ft 255 kts 249°
2026-04-22 20:08 55.69228 -3.27704 6712 ft 255 kts 249°
2026-04-22 20:08 55.68685 -3.30674 6637 ft 255 kts 249°
2026-04-22 20:08 55.68137 -3.33672 6555 ft 255 kts 249°
2026-04-22 20:09 55.67591 -3.36669 6483 ft 255 kts 249°
2026-04-22 20:09 55.67046 -3.39659 6409 ft 255 kts 249°
2026-04-22 20:09 55.66497 -3.42656 6332 ft 255 kts 249°
2026-04-22 20:09 55.65947 -3.45651 6258 ft 255 kts 249°
2026-04-22 20:10 55.65399 -3.48640 6177 ft 255 kts 249°
2026-04-22 20:10 55.64906 -3.51603 6061 ft 252 kts 258°
2026-04-22 20:10 55.64909 -3.54663 6002 ft 249 kts 279°
2026-04-22 20:10 55.65512 -3.57550 6006 ft 251 kts 300°
2026-04-22 20:11 55.66635 -3.59906 5711 ft 250 kts 318°
2026-04-22 20:11 55.67928 -3.61978 5350 ft 250 kts 318°
2026-04-22 20:11 55.69220 -3.64040 5045 ft 247 kts 319°
2026-04-22 20:11 55.70515 -3.65981 4993 ft 241 kts 320°
2026-04-22 20:12 55.71795 -3.67832 5004 ft 240 kts 321°
2026-04-22 20:12 55.73112 -3.69720 5005 ft 240 kts 321°
2026-04-22 20:12 55.73972 -3.70955 5014 ft 240 kts 321°
2026-04-22 20:12 55.75685 -3.73449 5003 ft 240 kts 318°
2026-04-22 20:13 55.77016 -3.75230 5002 ft 240 kts 334°
2026-04-22 20:13 55.78586 -3.76123 4894 ft 233 kts 356°
2026-04-22 20:13 55.80151 -3.75997 4761 ft 219 kts 17°
2026-04-22 20:13 55.81503 -3.75031 4630 ft 205 kts 37°
2026-04-22 20:14 55.82563 -3.73445 4449 ft 195 kts 55°
2026-04-22 20:14 55.83310 -3.71442 4142 ft 194 kts 63°
2026-04-22 20:14 55.84015 -3.69400 4018 ft 193 kts 63°
2026-04-22 20:14 55.84713 -3.67372 3895 ft 195 kts 63°
2026-04-22 20:15 55.85422 -3.65309 3667 ft 194 kts 63°
2026-04-22 20:15 55.86125 -3.63261 3407 ft 193 kts 63°
2026-04-22 20:15 55.86822 -3.61230 3180 ft 189 kts 63°
2026-04-22 20:15 55.87500 -3.59251 2897 ft 184 kts 62°
2026-04-22 20:16 55.88145 -3.57371 2629 ft 171 kts 62°
2026-04-22 20:16 55.88731 -3.55658 2421 ft 156 kts 62°
2026-04-22 20:16 55.89268 -3.54090 2206 ft 138 kts 62°
2026-04-22 20:16 55.89749 -3.52680 1992 ft 130 kts 62°
2026-04-22 20:17 55.90210 -3.51330 1798 ft 128 kts 62°
2026-04-22 20:17 55.90668 -3.49987 1628 ft 126 kts 61°
2026-04-22 20:17 55.91122 -3.48656 1477 ft 125 kts 62°
2026-04-22 20:17 55.91575 -3.47330 1308 ft 125 kts 62°
2026-04-22 20:18 55.92023 -3.46008 1125 ft 125 kts 61°
2026-04-22 20:18 55.92472 -3.44685 931 ft 124 kts 60°
2026-04-22 20:18 55.92920 -3.43369 768 ft 124 kts 60°
2026-04-22 20:18 55.93218 -3.42494 657 ft 124 kts 60°
2026-04-22 20:19 55.93662 -3.41187 477 ft 123 kts 60°
2026-04-22 20:19 55.94251 -3.39449 267 ft 123 kts 59°
2026-04-22 20:19 55.94695 -3.38151 122 ft 117 kts 59°
2026-04-22 20:19 55.94951 -3.37390 112 ft 91 kts 58°
2026-04-22 20:20 55.95204 -3.36643 114 ft 58 kts 58°
2026-04-22 20:20 55.95376 -3.36134 110 ft 41 kts 59°
2026-04-22 20:20 55.95502 -3.35764 113 ft 29 kts 58°
2026-04-22 20:20 55.95554 -3.35532 113 ft 13 kts 121°
2026-04-22 20:21 55.95501 -3.35443 115 ft 8 kts 151°
2026-04-22 20:21 55.95485 -3.35426 113 ft 0 kts 150°
2026-04-22 20:21 55.95484 -3.35425 113 ft 1 kts 149°
2026-04-22 20:21 55.95435 -3.35416 115 ft 11 kts 212°
2026-04-22 20:22 55.95402 -3.35494 112 ft 13 kts 237°
2026-04-22 20:22 55.95371 -3.35587 116 ft 10 kts 239°
2026-04-22 20:22 55.95335 -3.35692 114 ft 10 kts 239°
2026-04-22 20:22 55.95287 -3.35834 115 ft 15 kts 238°
2026-04-22 20:23 55.95235 -3.35982 113 ft 13 kts 238°
2026-04-22 20:23 55.95185 -3.36132 115 ft 17 kts 239°
2026-04-22 20:23 55.95111 -3.36353 116 ft 23 kts 239°
2026-04-22 20:23 55.95028 -3.36599 115 ft 24 kts 239°
2026-04-22 20:24 55.94963 -3.36791 114 ft 12 kts 239°
2026-04-22 20:24 55.94886 -3.36804 114 ft 13 kts 152°
2026-04-22 20:24 55.94818 -3.36777 116 ft 8 kts 179°
2026-04-22 20:24 55.94768 -3.36760 116 ft 5 kts 155°
2026-04-22 20:25 55.94756 -3.36744 115 ft 2 kts 129°
2026-04-22 20:25 55.94733 -3.36740 116 ft 4 kts 192°
2026-04-22 20:25 55.94706 -3.36729 116 ft 3 kts 132°
2026-04-22 20:25 55.94700 -3.36670 116 ft 3 kts 81°
2026-04-22 20:26 55.94702 -3.36632 115 ft 2 kts 88°
2026-04-22 20:26 55.94702 -3.36616 116 ft 2 kts 88°
2026-04-22 20:26 55.94702 -3.36607 116 ft 0 kts 88°